Погода в Махибаду

Мальдивы     3°45′27″N   72°58′06″E
темп.,
°C
ветер,
м/с
пор.,
м/с
влажн.,
%
обл.,
%
осадки,
мм/ч
давл.,
гПа
погр.,
м
15 августа, пн
пн1523:00+27ссз337879 0.0 1011558
02:00+27с447999 0.0 1009591
05:00+27с5580100 0.0 1009602
08:00+27ссв4580100 0.0 1011587
11:00+27ссв458033 0.0 1011639
14:00+27ссв347874 0.0 1010708
17:00+27ссв33776 0.0 1010676
20:00+27св23785 0.0 1011577
16 августа, вт
вт1623:00+27в23795 0.0 1012523
02:00+27в338067 0.0 1010582
05:00+26в3381100 0.1 1009396
08:00+27в337845 0.1 1011377
11:00+27в447492 0.1 1011560
14:00+28вюв347399 0.0 1009789
17:00+28вюв3472100 0.0 1009855
20:00+27юв347799 0.0 1011691
17 августа, ср
ср1723:00+27юв447734 0.0 1011477
02:00+27юв337711 0.1 1009383
05:00+27юв33777 0.3 1010366
08:00+27вюв33768 0.2 1012328
11:00+27вюв227365 0.3 1011440
14:00+28в007096 0.0 1009429
17:00+28зсз0067100 0.0 1009447
20:00+28ююв227251 0.0 1011271
18 августа, чт
чт1823:00+27юв127254 0.0 1011259
02:00+27ю117097 0.0 1009268
05:00+27сз10706 0.0 1009295
08:00+27ссз11715 0.0 1012348
11:00+27ссз22715 0.0 1011472
14:00+27сз227093 0.0 1009613
17:00+28сз2268100 0.0 1009688
20:00+27з1270100 0.0 1011569
19 августа, пт
пт1923:00+27зсз2271100 0.0 1012467
02:00+27зсз2272100 0.0 1009422
05:00+27сз2273100 0.0 1009403
08:00+27ссз3374100 0.0 1011451
11:00+27ссз3372100 0.0 1011496
14:00+27сз3470100 0.0 1009633
17:00+27сз4571100 0.0 1009708
20:00+27зсз457379 0.0 1011730